Retour au catalogue

FENGYUN 1C DEB

ActifPO
NORAD 37719·DEBRIS·🇨🇳 China

Lancé May 10, 1999 depuis Taiyuan Satellite Launch Center

Loading…

Prochains Passages (prochaines 24 heures)

TLE

PériméSource: Space-Track

Époque: Aug 26, 2026, 23:56 UTC

1 37719U 99025EML 26238.99743484  .00002380  00000-0  51890-3 0  9990
2 37719  99.4782 305.6856 0043235 211.2087 273.7744 14.58494516 39866

Suivez FENGYUN 1C DEB en temps réel avec AllMySat

Download on the App Store